Volver al catálogo

BEIDOU IGSO-7

ActivoNavegaciónMEO
NORAD 43539·PAYLOAD·🇨🇳 China

Lanzado Jul 9, 2018 desde Xichang Satellite Launch Center

Loading…

Próximos Pases (próximas 24 horas)

TLE

ActualizadoSource: Space-Track

Época: Sep 14, 2026, 12:15 UTC

1 43539U 18057A   26257.51054676 -.00000156  00000-0  00000-0 0  9994
2 43539  55.2132 162.2979 0108095 236.7633 250.7831  1.00276807 30025

Sigue BEIDOU IGSO-7 en tiempo real con AllMySat

Download on the App Store